Precipitable_Water
0.59 0.65 0.69 0.74 0.79 0.79 0.77 0.80 0.88 0.93 0.94 1.01 1.08 1.16 1.16 1.20 1.23 1.25 1.19 1.10 1.04 0.98 0.78 0.59 0.56 0.54 0.53 0.51 0.45 0.36 0.28 0.26 0.27 0.25 0.25 0.27 0.29 0.31 0.30 0.26 0.25 0.27 0.25
0.54 0.59 0.66 0.72 0.78 0.79 0.79 0.80 0.89 0.95 0.98 1.05 1.10 1.17 1.15 1.13 1.18 1.15 1.06 1.01 0.93 0.81 0.62 0.59 0.57 0.57 0.55 0.48 0.41 0.34 0.27 0.26 0.28 0.25 0.27 0.23 0.23 0.25 0.25 0.24 0.25 0.25 0.25
0.51 0.56 0.64 0.70 0.77 0.80 0.81 0.79 0.84 0.95 1.03 1.08 1.07 1.07 1.08 1.05 1.02 0.99 0.93 0.87 0.83 0.68 0.60 0.60 0.61 0.58 0.53 0.47 0.41 0.34 0.29 0.26 0.28 0.29 0.25 0.21 0.21 0.24 0.26 0.24 0.26 0.27 0.27
0.51 0.55 0.64 0.69 0.76 0.79 0.87 0.85 0.82 0.86 0.99 1.05 1.03 1.01 0.98 0.91 0.92 0.88 0.80 0.81 0.72 0.61 0.60 0.62 0.60 0.57 0.53 0.46 0.41 0.36 0.31 0.29 0.27 0.27 0.28 0.27 0.26 0.21 0.20 0.25 0.27 0.29 0.28
0.47 0.53 0.62 0.69 0.79 0.84 0.86 0.90 0.85 0.83 0.87 0.93 0.99 0.98 0.96 0.92 0.85 0.83 0.77 0.71 0.60 0.60 0.62 0.62 0.61 0.59 0.53 0.47 0.41 0.35 0.32 0.30 0.28 0.28 0.27 0.27 0.26 0.25 0.24 0.21 0.24 0.26 0.25
0.47 0.53 0.63 0.72 0.79 0.88 0.89 0.92 0.86 0.82 0.85 0.90 0.94 0.98 0.95 0.87 0.82 0.78 0.72 0.59 0.58 0.61 0.63 0.62 0.61 0.57 0.53 0.49 0.41 0.36 0.32 0.30 0.29 0.29 0.28 0.26 0.24 0.24 0.24 0.23 0.23 0.22 0.21
0.48 0.52 0.59 0.67 0.78 0.84 0.88 0.92 0.90 0.81 0.87 0.93 0.96 0.96 0.95 0.91 0.83 0.75 0.62 0.58 0.60 0.62 0.62 0.61 0.56 0.54 0.55 0.50 0.42 0.35 0.31 0.30 0.29 0.28 0.26 0.27 0.27 0.27 0.27 0.25 0.22 0.19 0.19
0.51 0.55 0.61 0.68 0.78 0.86 0.89 0.92 0.94 0.87 0.92 0.93 0.93 0.92 0.86 0.79 0.71 0.60 0.59 0.60 0.61 0.62 0.61 0.58 0.56 0.54 0.53 0.52 0.43 0.35 0.30 0.29 0.28 0.28 0.28 0.28 0.28 0.29 0.28 0.24 0.20 0.17 0.16
0.54 0.57 0.64 0.72 0.80 0.88 0.90 0.93 0.97 0.94 0.93 0.90 0.87 0.78 0.71 0.63 0.57 0.57 0.58 0.60 0.62 0.61 0.60 0.58 0.56 0.53 0.52 0.52 0.42 0.33 0.28 0.29 0.30 0.29 0.28 0.28 0.29 0.28 0.25 0.24 0.22 0.19 0.15
0.52 0.60 0.67 0.71 0.83 0.92 0.93 0.95 1.01 0.96 0.93 0.85 0.76 0.67 0.59 0.56 0.56 0.56 0.57 0.58 0.61 0.62 0.61 0.58 0.57 0.56 0.53 0.46 0.36 0.30 0.31 0.31 0.29 0.29 0.29 0.29 0.27 0.24 0.24 0.23 0.23 0.22 0.19
0.49 0.58 0.63 0.72 0.84 0.93 0.93 0.94 0.99 0.96 0.89 0.78 0.67 0.59 0.56 0.55 0.55 0.56 0.58 0.61 0.62 0.61 0.60 0.59 0.58 0.55 0.49 0.43 0.36 0.33 0.31 0.29 0.29 0.29 0.28 0.25 0.24 0.23 0.23 0.23 0.23 0.22 0.22
0.53 0.63 0.67 0.74 0.85 0.91 0.91 0.93 0.95 0.92 0.84 0.71 0.62 0.57 0.55 0.55 0.57 0.59 0.60 0.61 0.60 0.61 0.61 0.60 0.57 0.53 0.46 0.41 0.34 0.30 0.30 0.29 0.29 0.27 0.25 0.23 0.23 0.22 0.23 0.23 0.23 0.22 0.22
0.65 0.67 0.70 0.76 0.84 0.86 0.88 0.90 0.90 0.85 0.73 0.65 0.60 0.56 0.56 0.57 0.59 0.59 0.60 0.60 0.61 0.61 0.60 0.59 0.56 0.50 0.43 0.34 0.31 0.30 0.31 0.30 0.28 0.26 0.24 0.23 0.23 0.21 0.22 0.22 0.22 0.22 0.22
0.71 0.72 0.72 0.76 0.83 0.84 0.86 0.85 0.81 0.75 0.67 0.62 0.58 0.57 0.57 0.58 0.58 0.59 0.60 0.60 0.61 0.61 0.60 0.58 0.53 0.45 0.35 0.30 0.30 0.31 0.31 0.30 0.27 0.25 0.24 0.22 0.22 0.21 0.22 0.22 0.22 0.22 0.20
0.73 0.73 0.75 0.78 0.79 0.79 0.78 0.74 0.70 0.65 0.62 0.58 0.57 0.57 0.57 0.58 0.58 0.59 0.60 0.61 0.61 0.60 0.60 0.55 0.46 0.35 0.30 0.29 0.32 0.33 0.30 0.27 0.25 0.23 0.22 0.23 0.23 0.23 0.24 0.23 0.22 0.21 0.20
0.76 0.76 0.75 0.75 0.73 0.72 0.69 0.66 0.63 0.60 0.59 0.57 0.57 0.57 0.58 0.58 0.59 0.60 0.61 0.61 0.61 0.60 0.54 0.46 0.33 0.30 0.30 0.31 0.32 0.30 0.27 0.25 0.23 0.22 0.23 0.23 0.22 0.22 0.23 0.22 0.23 0.24 0.24
0.74 0.74 0.74 0.73 0.71 0.69 0.67 0.64 0.61 0.59 0.58 0.58 0.58 0.58 0.59 0.59 0.60 0.60 0.60 0.61 0.58 0.52 0.43 0.32 0.31 0.30 0.30 0.30 0.29 0.27 0.26 0.24 0.24 0.23 0.22 0.22 0.22 0.22 0.21 0.22 0.24 0.27 0.25
0.72 0.74 0.74 0.73 0.71 0.69 0.66 0.64 0.61 0.60 0.59 0.58 0.59 0.60 0.61 0.60 0.60 0.60 0.59 0.56 0.51 0.38 0.32 0.31 0.30 0.31 0.28 0.27 0.25 0.25 0.25 0.25 0.24 0.22 0.22 0.21 0.20 0.22 0.23 0.23 0.26 0.22 0.21
0.74 0.76 0.79 0.77 0.75 0.72 0.68 0.64 0.62 0.61 0.61 0.62 0.62 0.61 0.61 0.60 0.60 0.57 0.53 0.47 0.35 0.33 0.30 0.31 0.31 0.27 0.25 0.24 0.23 0.25 0.25 0.23 0.22 0.22 0.23 0.22 0.21 0.22 0.24 0.25 0.21 0.20 0.20
0.79 0.80 0.80 0.78 0.73 0.68 0.67 0.65 0.65 0.65 0.63 0.62 0.61 0.62 0.61 0.58 0.54 0.51 0.39 0.35 0.32 0.30 0.32 0.30 0.27 0.25 0.22 0.22 0.24 0.26 0.24 0.22 0.21 0.22 0.20 0.21 0.22 0.22 0.26 0.21 0.20 0.20 0.25
0.80 0.83 0.82 0.78 0.77 0.75 0.74 0.70 0.67 0.64 0.64 0.64 0.62 0.57 0.54 0.51 0.43 0.38 0.33 0.30 0.32 0.31 0.28 0.26 0.25 0.23 0.22 0.22 0.23 0.24 0.23 0.21 0.21 0.18 0.19 0.20 0.21 0.23 0.21 0.21 0.23 0.27 0.31
0.78 0.78 0.77 0.77 0.78 0.78 0.75 0.69 0.66 0.64 0.62 0.58 0.55 0.50 0.44 0.41 0.35 0.30 0.31 0.32 0.30 0.27 0.26 0.25 0.23 0.22 0.22 0.22 0.21 0.22 0.22 0.22 0.19 0.19 0.20 0.20 0.22 0.20 0.20 0.24 0.29 0.30 0.30
0.76 0.77 0.75 0.73 0.72 0.71 0.70 0.64 0.61 0.60 0.55 0.49 0.45 0.42 0.37 0.31 0.30 0.31 0.30 0.28 0.27 0.26 0.25 0.23 0.21 0.20 0.21 0.19 0.19 0.21 0.20 0.20 0.20 0.20 0.21 0.21 0.19 0.18 0.22 0.28 0.29 0.30 0.28
0.72 0.72 0.71 0.68 0.66 0.65 0.64 0.61 0.55 0.51 0.46 0.41 0.37 0.33 0.30 0.30 0.29 0.29 0.28 0.27 0.27 0.26 0.23 0.21 0.20 0.19 0.18 0.18 0.19 0.20 0.19 0.21 0.20 0.20 0.19 0.18 0.17 0.22 0.27 0.28 0.28 0.29 0.29
0.69 0.69 0.66 0.63 0.59 0.57 0.54 0.50 0.44 0.39 0.36 0.34 0.32 0.31 0.29 0.27 0.27 0.27 0.28 0.29 0.28 0.25 0.22 0.20 0.19 0.18 0.17 0.17 0.20 0.19 0.20 0.19 0.20 0.19 0.17 0.15 0.19 0.24 0.26 0.27 0.27 0.28 0.27
0.62 0.60 0.58 0.54 0.50 0.45 0.40 0.36 0.36 0.36 0.34 0.31 0.30 0.27 0.25 0.26 0.26 0.28 0.29 0.28 0.25 0.22 0.21 0.20 0.19 0.18 0.18 0.18 0.18 0.20 0.19 0.19 0.19 0.17 0.15 0.17 0.23 0.25 0.25 0.25 0.26 0.26 0.26
Wind_Speed
32 31 30 28 29 27 25 23 23 23 24 25 24 23 21 20 19 18 17 16 15 15 14 15 16 17 19 21 23 24 24 25 26 26 27 25 25 26 27 28 32 32 34
32 32 30 28 27 28 26 24 23 23 23 25 24 23 21 20 19 18 17 16 15 15 14 15 17 18 20 22 23 24 25 26 26 26 26 26 27 26 31 34 33 35 36
34 33 31 29 26 28 26 24 23 23 23 23 23 21 20 19 19 18 17 17 15 15 15 16 18 20 22 23 24 25 26 27 27 28 28 29 29 35 31 34 35 37 40
34 34 32 29 27 27 26 24 23 23 24 24 23 23 21 20 20 19 17 16 16 15 16 17 19 21 23 24 26 27 27 28 29 30 31 32 35 36 38 35 40 39 43
36 35 34 32 29 27 26 24 23 23 24 24 24 22 20 19 19 18 17 16 16 16 17 19 21 23 25 26 27 28 29 30 31 33 34 35 37 38 40 44 42 44 44
34 35 33 32 30 28 26 25 23 22 23 23 23 22 20 19 18 18 17 16 16 17 18 20 22 24 26 27 29 30 31 32 34 35 36 38 39 40 42 44 47 49 47
31 33 33 33 31 29 27 25 23 22 22 22 22 21 20 19 19 18 17 17 17 18 20 22 24 26 27 29 30 32 33 35 36 37 39 40 41 42 44 46 48 50 52
31 33 34 34 33 31 28 26 25 23 23 22 21 21 20 19 18 17 17 17 18 20 21 23 25 27 29 30 32 34 35 37 38 39 41 42 42 44 46 47 50 54 51
28 31 33 34 34 32 29 28 26 23 23 22 21 20 19 19 18 17 17 18 19 21 23 25 27 29 31 33 34 36 37 38 40 41 42 43 45 46 47 49 51 53 57
29 29 31 34 33 31 28 28 27 24 23 22 21 20 19 19 18 18 18 19 20 22 24 26 28 31 33 35 36 37 39 40 41 42 44 45 46 47 49 51 53 55 57
29 29 29 32 32 30 29 28 27 24 23 22 21 20 19 19 18 18 19 20 22 24 26 28 30 32 35 36 38 39 40 41 42 44 46 47 48 49 51 53 56 58 60
25 27 28 30 31 30 29 27 26 24 23 23 21 20 19 19 18 19 20 21 23 25 27 30 32 34 36 38 39 39 41 43 44 45 47 48 50 52 54 56 59 60 62
22 25 27 29 30 29 27 27 26 24 23 22 21 20 19 19 19 19 21 22 24 27 29 32 34 36 37 38 39 41 43 44 45 46 48 50 52 54 56 58 61 62 63
21 23 26 28 29 28 27 26 24 24 23 22 21 20 19 19 19 20 22 24 26 28 31 33 35 36 37 39 40 42 43 44 45 47 50 52 54 56 58 60 62 63 66
21 22 24 26 26 26 24 24 23 23 22 21 20 19 19 19 20 21 23 25 28 30 32 34 35 36 38 40 42 43 44 45 47 49 51 53 55 58 60 62 64 65 63
19 20 23 24 24 24 23 22 22 22 21 19 19 18 19 20 21 22 24 26 29 31 32 34 36 37 40 42 43 44 45 47 49 51 53 55 58 60 63 64 63 60 58
20 20 21 22 21 21 21 21 21 20 19 18 18 18 19 20 22 23 25 27 29 31 33 34 37 39 41 42 43 45 46 48 51 53 55 58 60 62 62 62 60 54 51
19 19 19 18 19 19 19 19 18 18 17 17 17 18 19 20 22 23 25 27 29 31 33 36 38 39 41 43 45 46 48 50 52 54 57 59 61 61 61 59 53 49 45
17 17 17 16 16 17 17 17 16 16 16 16 17 18 19 20 21 23 25 27 30 32 34 36 38 40 41 44 46 48 49 51 54 56 57 59 60 60 58 53 48 42 37
14 15 15 14 14 15 15 15 14 14 14 15 16 17 18 20 21 23 25 28 30 33 35 36 38 41 42 45 47 49 51 53 56 57 59 59 58 56 52 47 41 34 33
11 12 13 13 13 14 13 12 12 13 13 14 15 16 18 19 21 24 26 29 31 33 35 37 39 41 44 46 48 51 52 55 57 59 58 56 54 50 45 39 32 30 31
10 10 11 11 11 12 12 11 11 12 12 13 14 16 18 20 22 24 27 29 31 33 36 38 40 42 44 47 50 52 54 56 58 57 55 52 48 44 38 32 29 29 28
9 9 10 10 9 10 11 10 10 11 12 13 14 16 18 21 23 25 27 29 32 34 37 39 41 44 46 48 51 53 56 57 56 53 51 47 42 37 31 28 27 27 27
8 9 9 8 8 8 8 9 9 10 11 13 15 17 19 21 23 25 28 31 33 36 38 41 43 45 48 50 52 54 56 55 53 50 44 40 36 30 27 26 26 27 27
8 8 7 7 6 6 7 8 9 10 12 14 16 18 20 21 24 27 29 32 35 37 40 42 45 47 50 52 55 56 55 53 49 45 38 34 29 27 25 26 27 27 28
7 7 6 5 5 5 6 7 9 11 13 15 16 18 20 23 26 28 31 33 36 39 41 44 47 49 51 54 55 54 52 49 43 37 32 28 26 25 26 27 27 27 28
Wind_Direction
248 247 248 250 245 243 241 242 240 239 233 230 232 233 235 236 239 244 250 256 260 269 273 282 291 297 301 305 307 306 308 309 311 309 309 305 304 299 298 302 301 296 299
247 245 246 245 244 238 238 240 240 237 232 229 230 232 232 235 237 242 249 252 259 267 274 284 293 299 302 306 308 310 309 310 312 310 306 305 305 303 302 302 302 300 300
245 242 240 242 241 234 235 237 237 234 229 225 226 227 230 232 236 241 247 251 258 265 275 286 294 300 304 306 308 309 310 310 310 311 309 306 302 304 301 302 302 302 301
242 240 237 237 236 233 233 234 234 231 227 224 223 224 230 235 237 240 244 249 257 266 277 288 295 301 304 307 308 308 309 309 309 309 309 306 304 305 303 302 303 302 302
239 236 233 232 232 231 230 231 231 228 225 223 224 226 229 234 232 236 241 248 258 269 280 289 297 302 304 306 308 308 308 308 308 308 308 307 306 305 303 304 304 304 303
238 233 231 228 228 227 226 227 226 225 223 221 221 223 225 227 231 236 241 249 260 272 283 292 298 303 305 306 307 307 308 308 308 308 307 307 306 305 305 304 305 304 305
236 229 225 224 223 223 223 223 223 222 220 218 220 224 226 229 232 235 241 250 264 276 286 293 299 303 305 307 307 307 307 307 308 307 307 307 306 306 305 305 305 305 306
234 229 224 221 220 220 220 220 220 219 218 219 221 224 227 229 231 236 246 258 269 279 288 295 300 304 305 307 308 307 307 307 308 308 307 307 306 306 306 306 307 306 305
232 227 222 219 216 217 219 217 217 218 219 220 222 224 225 226 232 242 253 263 274 283 291 297 301 304 306 307 308 308 308 308 308 308 308 307 307 307 306 306 307 306 306
227 222 220 215 213 215 216 215 215 217 218 220 222 223 224 230 238 247 258 268 278 287 293 298 302 305 306 307 308 309 309 309 309 309 309 308 308 307 307 307 307 306 305
222 219 215 209 209 212 212 212 213 215 218 219 220 223 227 234 243 252 263 273 282 290 295 300 303 305 307 308 309 309 309 309 309 309 309 309 309 308 308 308 307 307 305
215 209 204 202 205 208 209 210 211 215 217 218 221 224 230 238 247 258 268 278 285 292 297 301 304 306 308 308 309 310 310 310 310 310 311 310 310 310 309 309 308 307 307
202 201 202 201 201 203 206 209 211 214 215 217 220 226 234 243 253 263 273 281 288 294 299 302 305 307 308 309 310 310 311 311 311 312 312 312 312 311 311 310 309 309 309
196 197 197 197 198 202 204 207 210 213 214 217 222 230 239 249 259 268 277 285 291 296 300 303 306 307 309 310 310 311 312 312 313 313 313 313 313 312 312 312 312 312 311
185 188 189 190 193 197 202 205 208 211 212 218 225 234 244 254 264 273 281 288 293 298 302 304 307 308 309 311 311 312 312 313 314 314 314 314 314 314 314 314 313 313 312
182 184 185 188 192 196 200 204 205 207 213 221 230 240 250 261 270 277 285 291 296 300 303 305 308 309 311 312 313 313 313 314 315 315 315 315 315 315 315 314 314 314 313
176 179 182 186 190 194 198 200 203 208 217 227 237 247 257 266 275 282 288 293 298 301 304 307 309 311 312 313 314 314 314 315 315 316 316 316 317 316 316 316 315 314 313
174 178 182 185 190 193 196 199 205 214 224 235 245 254 264 272 279 285 291 296 299 303 306 308 310 312 313 314 315 315 315 316 316 317 317 317 318 318 317 316 316 315 315
169 174 179 184 189 195 198 203 212 222 232 243 252 261 269 276 283 289 294 298 302 305 308 310 312 313 314 315 316 316 316 317 317 318 318 318 318 318 318 318 317 317 317
168 175 181 186 191 196 199 206 218 228 241 249 258 267 274 281 287 292 297 301 304 307 310 312 313 314 315 317 317 318 318 318 319 320 320 319 319 319 320 319 319 319 319
173 179 188 195 198 199 203 214 228 239 246 255 265 274 280 286 292 297 301 304 307 310 312 313 315 316 317 318 319 319 320 320 320 320 320 320 321 320 321 320 320 319 321
175 182 187 194 200 206 212 225 235 242 252 263 271 279 286 292 297 301 304 307 310 312 314 315 316 317 318 319 320 321 321 321 321 321 321 321 321 322 322 322 321 323 323
182 186 188 192 205 213 217 227 242 249 259 269 278 285 292 297 301 304 308 310 313 314 315 316 317 318 319 320 321 321 322 322 322 322 322 322 323 323 324 324 324 325 324
183 186 189 195 206 217 228 238 247 258 268 278 286 292 296 301 305 308 311 313 314 315 316 318 318 319 320 321 322 322 323 323 323 323 323 323 324 325 324 325 326 326 326
180 183 187 195 207 217 235 249 259 269 280 288 293 298 302 305 308 311 313 315 316 317 318 319 320 321 322 322 323 324 324 324 324 324 324 325 326 327 327 327 327 327 327
170 173 183 195 218 233 253 265 275 283 289 295 299 302 306 308 311 313 315 317 318 319 320 321 322 322 322 323 324 324 324 324 325 326 326 327 328 328 328 328 328 328 328